Location: Garbet
(42.8837°N, 1.2115°E)
Time: 14:38:11
(UTC+00:00)

Cosmos 1898 Rocket - Pass Details

Date: 13 December 2025
Orbit: 749 x 779 km, 74.0° (Epoch: 19 January)

Event Time Altitude Azimuth Distance (km) Brightness Sun altitude
Rises 17:05:15 0° 169° (S) 3,180 6.9 -8.0°
Reaches altitude 10° 17:07:51 10° 158° (SSE) 2,261 6.0 -8.4°
Maximum altitude 17:12:11 29° 100° (E) 1,365 4.4 -9.1°
Drops below altitude 10° 17:16:34 10° 42° (NE) 2,281 5.4 -9.9°
Enters shadow 17:16:42 - 41° (NE) 2,327 5.5 -9.9°
